Location: Clanezzo
(45.7500°N, 9.6000°E)
Time: 03:44:22
(UTC+00:00)

Nadezhda 1 Rocket - Pass Details

Date: 12 May 2021
Orbit: 940 x 1006 km, 83.0° (Epoch: 18 June)

Event Time Altitude Azimuth Distance (km) Brightness Sun altitude
Exits shadow 21:43:58 24° 210° (SSW) 1,905 5.2 -22.4°
Maximum altitude 21:47:45 59° 282° (WNW) 1,125 4.4 -22.7°
Drops below altitude 10° 21:53:55 10° 2° (N) 2,724 7.2 -23.1°
Sets 21:56:28 0° 6° (N) 3,665 8.0 -23.3°
